Time,TemperatureF,DewpointF,PressureIn,WindDirection,WindDirectionDegrees,WindSpeedMPH,WindSpeedGustMPH,Humidity,HourlyPrecipIn,Conditions,Clouds,dailyrainin,SoftwareType,DateUTC
2013-08-31 00:13:00,70.0,67.0,29.73,ENE,75,1.0,3.0,89,0.00,,,0.00,,2013-08-31 05:13:00,
2013-08-31 00:23:00,69.0,66.0,29.74,ENE,67,1.0,3.0,90,0.00,,,0.00,,2013-08-31 05:23:00,
2013-08-31 00:42:00,69.0,66.0,29.74,ENE,67,0.0,2.0,89,0.00,,,0.00,,2013-08-31 05:42:00,
2013-08-31 00:53:00,70.0,67.0,29.73,NNE,29,2.0,5.0,90,0.00,,,0.00,,2013-08-31 05:53:00,
2013-08-31 01:12:00,70.0,67.0,29.73,NE,55,1.0,5.0,91,0.00,,,0.00,,2013-08-31 06:12:00,
2013-08-31 01:22:00,70.0,68.0,29.73,NE,48,2.0,6.0,92,0.00,,,0.00,,2013-08-31 06:22:00,
2013-08-31 01:42:00,70.0,68.0,29.73,ENE,59,2.0,4.0,93,0.00,,,0.00,,2013-08-31 06:42:00,
2013-08-31 01:52:00,69.0,67.0,29.74,ENE,60,1.0,3.0,93,0.00,,,0.00,,2013-08-31 06:52:00,
2013-08-31 02:12:00,69.0,67.0,29.75,ESE,111,2.0,7.0,94,0.00,,,0.00,,2013-08-31 07:12:00,
2013-08-31 02:22:00,69.0,67.0,29.75,East,94,2.0,6.0,94,0.00,,,0.00,,2013-08-31 07:22:00,
2013-08-31 02:42:00,69.0,68.0,29.76,East,90,2.0,5.0,95,0.00,,,0.00,,2013-08-31 07:42:00,
2013-08-31 02:52:00,69.0,68.0,29.75,East,95,2.0,6.0,95,0.00,,,0.00,,2013-08-31 07:52:00,
2013-08-31 03:12:00,69.0,68.0,29.76,East,90,2.0,6.0,96,0.00,,,0.00,,2013-08-31 08:12:00,
2013-08-31 03:22:00,69.0,68.0,29.77,ESE,103,2.0,5.0,96,0.00,,,0.00,,2013-08-31 08:22:00,
2013-08-31 03:42:00,69.0,68.0,29.77,East,101,2.0,5.0,96,0.00,,,0.00,,2013-08-31 08:42:00,
2013-08-31 03:52:00,69.0,68.0,29.77,East,88,2.0,5.0,96,0.00,,,0.00,,2013-08-31 08:52:00,
2013-08-31 04:12:00,69.0,68.0,29.77,ESE,105,1.0,6.0,96,0.00,,,0.00,,2013-08-31 09:12:00,
2013-08-31 04:23:00,69.0,68.0,29.77,ESE,105,1.0,3.0,96,0.00,,,0.00,,2013-08-31 09:23:00,
2013-08-31 04:44:00,68.0,67.0,29.78,ESE,105,1.0,3.0,96,0.00,,,0.00,,2013-08-31 09:44:00,
2013-08-31 04:53:00,68.0,67.0,29.78,ESE,105,1.0,3.0,96,0.00,,,0.00,,2013-08-31 09:53:00,
2013-08-31 05:12:00,68.0,67.0,29.78,East,84,1.0,5.0,97,0.00,,,0.00,,2013-08-31 10:12:00,
2013-08-31 05:23:00,68.0,67.0,29.77,ESE,103,2.0,5.0,97,0.00,,,0.00,,2013-08-31 10:23:00,
2013-08-31 05:43:00,68.0,67.0,29.77,East,99,2.0,5.0,97,0.00,,,0.00,,2013-08-31 10:43:00,
2013-08-31 05:53:00,68.0,67.0,29.76,ESE,106,4.0,7.0,97,0.00,,,0.00,,2013-08-31 10:53:00,
2013-08-31 06:12:00,68.0,67.0,29.76,ENE,66,2.0,7.0,97,0.00,,,0.00,,2013-08-31 11:12:00,
2013-08-31 06:22:00,68.0,67.0,29.76,ENE,76,3.0,7.0,97,0.00,,,0.00,,2013-08-31 11:22:00,
2013-08-31 06:42:00,68.0,67.0,29.77,NE,44,3.0,5.0,97,0.00,,,0.00,,2013-08-31 11:42:00,
2013-08-31 06:52:00,68.0,67.0,29.76,ENE,72,3.0,6.0,97,0.00,,,0.00,,2013-08-31 11:52:00,
2013-08-31 07:11:00,68.0,67.0,29.77,ENE,77,2.0,3.0,97,0.00,,,0.00,,2013-08-31 12:11:00,
2013-08-31 07:22:00,68.0,67.0,29.77,East,99,3.0,6.0,97,0.00,,,0.00,,2013-08-31 12:22:00,
2013-08-31 07:42:00,68.0,67.0,29.76,East,95,2.0,5.0,98,0.00,,,0.00,,2013-08-31 12:42:00,
2013-08-31 07:52:00,69.0,68.0,29.77,East,97,3.0,6.0,98,0.00,,,0.00,,2013-08-31 12:52:00,
2013-08-31 08:11:00,70.0,69.0,29.77,East,93,3.0,7.0,97,0.00,,,0.00,,2013-08-31 13:11:00,
2013-08-31 08:22:00,70.0,69.0,29.77,East,96,2.0,7.0,96,0.00,,,0.00,,2013-08-31 13:22:00,
2013-08-31 08:42:00,71.0,70.0,29.76,East,98,3.0,6.0,96,0.00,,,0.00,,2013-08-31 13:42:00,
2013-08-31 08:52:00,72.0,70.0,29.76,SE,128,3.0,7.0,95,0.00,,,0.00,,2013-08-31 13:52:00,
2013-08-31 09:12:00,73.0,71.0,29.75,East,83,4.0,8.0,93,0.00,,,0.00,,2013-08-31 14:12:00,
2013-08-31 09:22:00,74.0,72.0,29.75,East,92,4.0,8.0,92,0.00,,,0.00,,2013-08-31 14:22:00,
2013-08-31 09:42:00,75.0,72.0,29.75,ESE,111,4.0,10.0,90,0.00,,,0.00,,2013-08-31 14:42:00,
2013-08-31 09:52:00,76.0,73.0,29.75,ESE,103,3.0,7.0,89,0.00,,,0.00,,2013-08-31 14:52:00,
2013-08-31 10:11:00,76.0,72.0,29.75,East,99,2.0,8.0,87,0.01,,,0.01,,2013-08-31 15:11:00,
2013-08-31 10:23:00,76.0,72.0,29.75,East,101,2.0,5.0,88,0.01,,,0.01,,2013-08-31 15:23:00,
2013-08-31 10:44:00,77.0,73.0,29.75,East,82,4.0,8.0,88,0.01,,,0.01,,2013-08-31 15:44:00,
2013-08-31 10:55:00,78.0,74.0,29.75,ESE,112,5.0,8.0,88,0.01,,,0.01,,2013-08-31 15:55:00,
2013-08-31 11:14:00,78.0,73.0,29.74,East,96,4.0,8.0,86,0.00,,,0.01,,2013-08-31 16:14:00,
2013-08-31 11:25:00,79.0,74.0,29.75,East,100,5.0,9.0,86,0.00,,,0.01,,2013-08-31 16:25:00,
2013-08-31 11:44:00,79.0,73.0,29.75,East,79,3.0,8.0,82,0.00,,,0.01,,2013-08-31 16:44:00,
2013-08-31 11:52:00,78.0,74.0,29.75,East,91,3.0,6.0,87,0.00,,,0.01,,2013-08-31 16:52:00,
2013-08-31 12:13:00,80.0,75.0,29.75,East,90,4.0,8.0,86,0.00,,,0.01,,2013-08-31 17:13:00,
2013-08-31 12:23:00,80.0,75.0,29.74,East,96,5.0,10.0,86,0.00,,,0.01,,2013-08-31 17:23:00,
2013-08-31 12:43:00,80.0,75.0,29.72,NE,41,6.0,11.0,85,0.00,,,0.01,,2013-08-31 17:43:00,
2013-08-31 12:53:00,80.0,75.0,29.72,ENE,63,6.0,11.0,85,0.00,,,0.01,,2013-08-31 17:53:00,
2013-08-31 13:12:00,80.0,75.0,29.72,ENE,69,7.0,10.0,84,0.00,,,0.01,,2013-08-31 18:12:00,
2013-08-31 13:22:00,81.0,77.0,29.72,East,85,5.0,10.0,87,0.00,,,0.01,,2013-08-31 18:22:00,
2013-08-31 13:42:00,81.0,76.0,29.73,NE,49,4.0,9.0,86,0.00,,,0.01,,2013-08-31 18:42:00,
2013-08-31 13:52:00,81.0,76.0,29.72,East,86,6.0,10.0,85,0.00,,,0.01,,2013-08-31 18:52:00,
2013-08-31 14:12:00,82.0,76.0,29.72,East,86,5.0,9.0,83,0.01,,,0.02,,2013-08-31 19:12:00,
2013-08-31 14:22:00,81.0,76.0,29.72,ESE,107,3.0,8.0,86,0.01,,,0.02,,2013-08-31 19:22:00,
2013-08-31 14:42:00,82.0,76.0,29.71,East,86,3.0,9.0,81,0.01,,,0.02,,2013-08-31 19:42:00,
2013-08-31 14:52:00,83.0,77.0,29.71,ESE,110,3.0,8.0,82,0.01,,,0.02,,2013-08-31 19:52:00,
2013-08-31 15:12:00,83.0,77.0,29.71,East,92,3.0,8.0,81,0.00,,,0.02,,2013-08-31 20:12:00,
2013-08-31 15:22:00,83.0,77.0,29.71,East,92,4.0,7.0,82,0.00,,,0.02,,2013-08-31 20:22:00,
2013-08-31 15:42:00,83.0,76.0,29.70,East,96,3.0,5.0,79,0.00,,,0.02,,2013-08-31 20:42:00,
2013-08-31 15:53:00,82.0,76.0,29.70,ENE,78,2.0,6.0,82,0.00,,,0.02,,2013-08-31 20:53:00,
2013-08-31 16:12:00,81.0,76.0,29.70,ENE,76,2.0,7.0,84,0.00,,,0.02,,2013-08-31 21:12:00,
2013-08-31 16:22:00,81.0,75.0,29.70,ENE,66,3.0,8.0,82,0.00,,,0.02,,2013-08-31 21:22:00,
2013-08-31 16:54:00,79.0,74.0,29.70,NE,43,2.0,4.0,86,0.00,,,0.02,,2013-08-31 21:54:00,
2013-08-31 17:13:00,79.0,74.0,29.70,NE,54,2.0,4.0,85,0.00,,,0.02,,2013-08-31 22:13:00,
2013-08-31 17:23:00,78.0,73.0,29.70,NE,55,0.0,3.0,86,0.00,,,0.02,,2013-08-31 22:23:00,
2013-08-31 17:43:00,78.0,74.0,29.71,NE,47,2.0,4.0,87,0.00,,,0.02,,2013-08-31 22:43:00,
2013-08-31 17:53:00,79.0,75.0,29.70,NE,35,3.0,7.0,87,0.00,,,0.02,,2013-08-31 22:53:00,
2013-08-31 18:12:00,79.0,74.0,29.70,NE,46,3.0,7.0,85,0.00,,,0.02,,2013-08-31 23:12:00,
2013-08-31 18:22:00,78.0,73.0,29.70,NNE,18,4.0,9.0,85,0.00,,,0.02,,2013-08-31 23:22:00,
2013-08-31 18:42:00,77.0,73.0,29.70,NE,41,4.0,8.0,87,0.00,,,0.02,,2013-08-31 23:42:00,
2013-08-31 18:52:00,76.0,72.0,29.70,NE,54,3.0,7.0,88,0.00,,,0.02,,2013-08-31 23:52:00,
2013-08-31 19:11:00,76.0,73.0,29.70,NE,50,3.0,6.0,90,0.00,,,0.02,,2013-09-01 00:11:00,
2013-08-31 19:22:00,75.0,72.0,29.70,ENE,57,3.0,7.0,90,0.00,,,0.02,,2013-09-01 00:22:00,
2013-08-31 19:42:00,75.0,72.0,29.71,NE,46,2.0,7.0,90,0.00,,,0.02,,2013-09-01 00:42:00,
2013-08-31 19:52:00,75.0,72.0,29.72,NE,46,2.0,5.0,90,0.00,,,0.02,,2013-09-01 00:52:00,
2013-08-31 20:11:00,74.0,71.0,29.72,ENE,57,2.0,6.0,91,0.00,,,0.02,,2013-09-01 01:11:00,
2013-08-31 20:22:00,74.0,72.0,29.73,ENE,70,2.0,5.0,92,0.00,,,0.02,,2013-09-01 01:22:00,
2013-08-31 20:42:00,74.0,72.0,29.73,NE,53,2.0,4.0,92,0.00,,,0.02,,2013-09-01 01:42:00,
2013-08-31 20:52:00,74.0,72.0,29.73,ENE,61,2.0,4.0,92,0.00,,,0.02,,2013-09-01 01:52:00,
2013-08-31 21:12:00,74.0,72.0,29.73,East,80,3.0,6.0,92,0.00,,,0.02,,2013-09-01 02:12:00,
2013-08-31 21:22:00,73.0,70.0,29.72,ENE,71,3.0,7.0,91,0.00,,,0.02,,2013-09-01 02:22:00,
2013-08-31 21:43:00,73.0,71.0,29.73,ENE,58,2.0,5.0,93,0.00,,,0.02,,2013-09-01 02:43:00,
2013-08-31 21:53:00,73.0,71.0,29.74,NE,34,3.0,7.0,92,0.00,,,0.02,,2013-09-01 02:53:00,
2013-08-31 22:12:00,72.0,70.0,29.75,NE,46,2.0,6.0,93,0.00,,,0.02,,2013-09-01 03:12:00,
2013-08-31 22:23:00,72.0,70.0,29.75,NE,46,2.0,5.0,93,0.00,,,0.02,,2013-09-01 03:23:00,
2013-08-31 22:44:00,72.0,70.0,29.75,ENE,63,3.0,7.0,93,0.00,,,0.02,,2013-09-01 03:44:00,
2013-08-31 22:54:00,72.0,70.0,29.76,ENE,61,2.0,5.0,92,0.00,,,0.02,,2013-09-01 03:54:00,
2013-08-31 23:03:00,-999.0,-99.9,29.76,NE,49,1.0,4.0,-999,-99.99,,,-99.99,,2013-09-01 04:03:00,
2013-08-31 23:14:00,72.0,70.0,29.76,NE,49,1.0,4.0,93,0.00,,,0.02,,2013-09-01 04:14:00,
2013-08-31 23:25:00,72.0,70.0,29.77,NNE,30,1.0,4.0,93,0.00,,,0.02,,2013-09-01 04:25:00,
2013-08-31 23:43:00,72.0,70.0,29.77,NE,46,2.0,4.0,92,0.00,,,0.02,,2013-09-01 04:43:00,
2013-08-31 23:54:00,72.0,70.0,29.76,NE,50,2.0,4.0,92,0.00,,,0.02,,2013-09-01 04:54:00,